Weather in Foix

France     42°57′50″N   1°36′12″E
temp.,
°C
wind,
m/s
gust,
m/s
humid.,
%
clouds,
%
prec.,
mm/h
press.,
hPa
HPBL,
m
20 january, wed
wed2001:00+3s33540 0.0 101850
04:00+4s335764 0.0 101563
07:00+5s345577 0.0 101285
10:00+7s235384 0.0 101187
13:00+12s244283 0.0 1009386
16:00+10ssw3747100 0.0 1006362
19:00+5s237093 0.0 100760
22:00+5s2271100 0.0 100739
21 january, thu
thu2101:00+5ssw227291 0.0 100742
04:00+5ssw227654 0.0 100826
07:00+5s227528 0.0 100927
10:00+7s326851 0.0 101086
13:00+12s125375 0.0 1009493
16:00+11s0163100 0.0 1006233
19:00+7sw1177100 0.1 100723
22:00+6ssw337459 0.0 100756
22 january, fri
fri2201:00+5s127729 0.0 100832
04:00+5s237462 0.0 100544
07:00+6sse237181 0.0 100159
10:00+9s237668 0.6 99793
13:00+10nw266983 2.6 995962
16:00+5w10257980 1.9 9972191
19:00+3w10218790 4.3 10021963
22:00+2w71795100 1.9 10061368
23 january, sat
sat2301:00+2wsw3128287 2.4 10081062
04:00+1ssw249474 1.0 1007206
07:000s338270 1.1 100650
10:00+3wsw31786100 0.5 10061771
13:00+4wnw81882100 1.4 10061824
16:00+4w51485100 1.0 10061595
19:00+2sw2694100 1.8 1007462
22:00+2sse1190100 0.1 100622
24 january, sun
sun2401:00+1ese1192100 0.1 100436
04:00+1nnw129999 1.9 1002175
07:000wnw2599100 7.1 1005254
10:00+1w369396 0.8 1007442
13:00+4w4118192 1.5 10071215
16:00+2w5129782 3.6 1008984
19:00+2wnw3119891 8.8 10101054
22:00+2wnw51398100 8.0 10111242